Time,TemperatureF,DewpointF,PressureIn,WindDirection,WindDirectionDegrees,WindSpeedMPH,WindSpeedGustMPH,Humidity,HourlyPrecipIn,Conditions,Clouds,dailyrainin,SoftwareType,DateUTC
2013-03-21 00:02:00,20.0,14.0,-100.00,North,0,6.0,9.0,76,0.00,,,-99.99,,2013-03-21 05:02:00,
2013-03-21 00:12:00,20.0,14.0,-100.00,North,5,6.0,10.0,77,0.00,,,-99.99,,2013-03-21 05:12:00,
2013-03-21 00:22:00,20.0,13.0,-100.00,North,5,7.0,11.0,77,0.00,,,-99.99,,2013-03-21 05:22:00,
2013-03-21 00:32:00,19.0,13.0,-100.00,NNE,15,8.0,10.0,78,0.00,,,-99.99,,2013-03-21 05:32:00,
2013-03-21 00:43:00,19.0,13.0,-100.00,NNE,15,8.0,10.0,78,0.00,,,-99.99,,2013-03-21 05:43:00,
2013-03-21 00:52:00,18.0,13.0,-100.00,NNE,25,9.0,11.0,80,0.00,,,-99.99,,2013-03-21 05:52:00,
2013-03-21 01:02:00,18.0,13.0,-100.00,NNE,25,9.0,11.0,80,0.00,,,-99.99,,2013-03-21 06:02:00,
2013-03-21 01:12:00,18.0,13.0,-100.00,NNE,20,10.0,13.0,78,0.00,,,-99.99,,2013-03-21 06:12:00,
2013-03-21 01:22:00,18.0,12.0,-100.00,NNE,25,11.0,14.0,77,0.00,,,-99.99,,2013-03-21 06:22:00,
2013-03-21 01:32:00,18.0,12.0,-100.00,NNE,25,9.0,14.0,77,0.00,,,-99.99,,2013-03-21 06:32:00,
2013-03-21 01:42:00,17.0,12.0,-100.00,NNE,25,8.0,11.0,79,0.00,,,-99.99,,2013-03-21 06:42:00,
2013-03-21 01:52:00,17.0,12.0,-100.00,NNE,25,7.0,11.0,80,0.00,,,-99.99,,2013-03-21 06:52:00,
2013-03-21 02:02:00,17.0,12.0,-100.00,NNE,25,7.0,11.0,80,0.00,,,-99.99,,2013-03-21 07:02:00,
2013-03-21 02:12:00,17.0,12.0,-100.00,NE,55,7.0,9.0,79,0.00,,,-99.99,,2013-03-21 07:12:00,
2013-03-21 02:22:00,17.0,11.0,-100.00,NNE,30,7.0,13.0,76,0.00,,,-99.99,,2013-03-21 07:22:00,
2013-03-21 02:32:00,16.0,10.0,-100.00,NNE,30,6.0,10.0,76,0.00,,,-99.99,,2013-03-21 07:32:00,
2013-03-21 02:42:00,16.0,10.0,-100.00,NNE,30,6.0,10.0,76,0.00,,,-99.99,,2013-03-21 07:42:00,
2013-03-21 02:52:00,15.0,10.0,-100.00,NE,40,4.0,7.0,79,0.00,,,-99.99,,2013-03-21 07:52:00,
2013-03-21 03:02:00,15.0,10.0,-100.00,NE,40,4.0,7.0,79,0.00,,,-99.99,,2013-03-21 08:02:00,
2013-03-21 03:13:00,16.0,10.0,-100.00,North,10,4.0,7.0,76,0.00,,,-99.99,,2013-03-21 08:13:00,
2013-03-21 03:22:00,15.0,9.0,-100.00,NE,35,7.0,9.0,74,0.00,,,-99.99,,2013-03-21 08:22:00,
2013-03-21 03:33:00,15.0,8.0,-100.00,NE,35,7.0,9.0,74,0.00,,,-99.99,,2013-03-21 08:33:00,
2013-03-21 03:42:00,15.0,8.0,-100.00,NE,35,7.0,9.0,74,0.00,,,-99.99,,2013-03-21 08:42:00,
2013-03-21 03:52:00,14.0,8.0,-100.00,NNE,30,6.0,9.0,77,0.00,,,-99.99,,2013-03-21 08:52:00,
2013-03-21 04:02:00,14.0,8.0,-100.00,NNE,30,6.0,9.0,77,0.00,,,-99.99,,2013-03-21 09:02:00,
2013-03-21 04:11:00,14.0,9.0,-100.00,NE,35,4.0,8.0,78,0.00,,,-99.99,,2013-03-21 09:11:00,
2013-03-21 04:21:00,14.0,9.0,-100.00,NE,35,4.0,6.0,80,0.00,,,-99.99,,2013-03-21 09:21:00,
2013-03-21 04:33:00,14.0,9.0,-100.00,NE,55,4.0,6.0,81,0.00,,,-99.99,,2013-03-21 09:33:00,
2013-03-21 04:43:00,14.0,9.0,-100.00,NE,55,4.0,6.0,81,0.00,,,-99.99,,2013-03-21 09:43:00,
2013-03-21 04:53:00,13.0,9.0,-100.00,NE,55,4.0,6.0,82,0.00,,,-99.99,,2013-03-21 09:53:00,
2013-03-21 05:03:00,14.0,8.0,-100.00,NE,55,7.0,11.0,79,0.00,,,-99.99,,2013-03-21 10:03:00,
2013-03-21 05:12:00,14.0,8.0,-100.00,NE,50,6.0,10.0,77,0.00,,,-99.99,,2013-03-21 10:12:00,
2013-03-21 05:22:00,13.0,7.0,-100.00,NE,45,6.0,9.0,76,0.00,,,-99.99,,2013-03-21 10:22:00,
2013-03-21 05:33:00,13.0,7.0,-100.00,NE,45,6.0,9.0,76,0.00,,,-99.99,,2013-03-21 10:33:00,
2013-03-21 05:42:00,13.0,7.0,-100.00,NE,45,6.0,9.0,76,0.00,,,-99.99,,2013-03-21 10:42:00,
2013-03-21 05:52:00,13.0,7.0,-100.00,NNE,20,2.0,6.0,77,0.00,,,-99.99,,2013-03-21 10:52:00,
2013-03-21 06:03:00,13.0,7.0,-100.00,NNE,20,2.0,6.0,77,0.00,,,-99.99,,2013-03-21 11:03:00,
2013-03-21 06:12:00,13.0,7.0,-100.00,NNE,25,1.0,2.0,77,0.00,,,-99.99,,2013-03-21 11:12:00,
2013-03-21 06:22:00,13.0,7.0,-100.00,North,10,2.0,2.0,77,0.00,,,-99.99,,2013-03-21 11:22:00,
2013-03-21 06:33:00,12.0,7.0,-100.00,NNW,340,1.0,4.0,78,0.00,,,-99.99,,2013-03-21 11:33:00,
2013-03-21 06:42:00,12.0,7.0,-100.00,NNW,340,1.0,4.0,78,0.00,,,-99.99,,2013-03-21 11:42:00,
2013-03-21 06:52:00,12.0,7.0,-100.00,NNW,345,2.0,3.0,79,0.00,,,-99.99,,2013-03-21 11:52:00,
2013-03-21 07:02:00,12.0,7.0,-100.00,NNW,345,2.0,3.0,79,0.00,,,-99.99,,2013-03-21 12:02:00,
2013-03-21 07:12:00,12.0,7.0,-100.00,North,0,2.0,4.0,80,0.00,,,-99.99,,2013-03-21 12:12:00,
2013-03-21 07:22:00,12.0,7.0,-100.00,WNW,295,1.0,3.0,81,0.00,,,-99.99,,2013-03-21 12:22:00,
2013-03-21 07:33:00,12.0,7.0,-100.00,NW,320,1.0,4.0,81,0.00,,,-99.99,,2013-03-21 12:33:00,
2013-03-21 07:42:00,12.0,7.0,-100.00,NW,320,1.0,4.0,81,0.00,,,-99.99,,2013-03-21 12:42:00,
2013-03-21 07:52:00,13.0,8.0,-100.00,North,355,1.0,2.0,80,0.00,,,-99.99,,2013-03-21 12:52:00,
2013-03-21 08:02:00,13.0,8.0,-100.00,North,355,1.0,2.0,80,0.00,,,-99.99,,2013-03-21 13:02:00,
2013-03-21 08:12:00,14.0,8.0,-100.00,North,10,2.0,3.0,78,0.00,,,-99.99,,2013-03-21 13:12:00,
2013-03-21 08:22:00,14.0,8.0,-100.00,NNW,335,2.0,4.0,75,0.00,,,-99.99,,2013-03-21 13:22:00,
2013-03-21 08:32:00,15.0,7.0,-100.00,North,355,1.0,3.0,68,0.00,,,-99.99,,2013-03-21 13:32:00,
2013-03-21 08:42:00,15.0,7.0,-100.00,North,355,1.0,3.0,68,0.00,,,-99.99,,2013-03-21 13:42:00,
2013-03-21 08:52:00,16.0,8.0,-100.00,North,0,1.0,3.0,68,0.00,,,-99.99,,2013-03-21 13:52:00,
2013-03-21 09:02:00,16.0,8.0,-100.00,North,0,1.0,3.0,68,0.00,,,-99.99,,2013-03-21 14:02:00,
2013-03-21 09:12:00,17.0,8.0,-100.00,ESE,110,0.0,4.0,68,0.00,,,-99.99,,2013-03-21 14:12:00,
2013-03-21 09:21:00,18.0,9.0,-100.00,ENE,60,1.0,3.0,67,0.00,,,-99.99,,2013-03-21 14:21:00,
2013-03-21 09:32:00,18.0,8.0,-100.00,SE,135,1.0,3.0,64,0.00,,,-99.99,,2013-03-21 14:32:00,
2013-03-21 09:42:00,18.0,8.0,-100.00,SE,135,1.0,3.0,64,0.00,,,-99.99,,2013-03-21 14:42:00,
2013-03-21 09:52:00,18.0,9.0,-100.00,ENE,65,1.0,4.0,64,0.00,,,-99.99,,2013-03-21 14:52:00,
2013-03-21 10:03:00,18.0,9.0,-100.00,ENE,65,1.0,4.0,64,0.00,,,-99.99,,2013-03-21 15:03:00,
2013-03-21 10:12:00,19.0,9.0,-100.00,SE,135,0.0,4.0,63,0.00,,,-99.99,,2013-03-21 15:12:00,
2013-03-21 10:22:00,19.0,9.0,-100.00,NE,35,1.0,5.0,63,0.00,,,-99.99,,2013-03-21 15:22:00,
2013-03-21 10:33:00,21.0,9.0,-100.00,ESE,120,2.0,9.0,59,0.00,,,-99.99,,2013-03-21 15:33:00,
2013-03-21 10:42:00,21.0,9.0,-100.00,ESE,120,2.0,9.0,59,0.00,,,-99.99,,2013-03-21 15:42:00,
2013-03-21 10:52:00,22.0,10.0,-100.00,South,180,4.0,6.0,58,0.00,,,-99.99,,2013-03-21 15:52:00,
2013-03-21 11:03:00,22.0,10.0,-100.00,South,180,4.0,6.0,58,0.00,,,-99.99,,2013-03-21 16:03:00,
2013-03-21 11:12:00,24.0,10.0,-100.00,SSE,160,2.0,9.0,54,0.00,,,-99.99,,2013-03-21 16:12:00,
2013-03-21 11:23:00,23.0,11.0,-100.00,SW,215,6.0,8.0,58,0.00,,,-99.99,,2013-03-21 16:23:00,
2013-03-21 11:33:00,24.0,10.0,-100.00,South,170,5.0,7.0,54,0.00,,,-99.99,,2013-03-21 16:33:00,
2013-03-21 11:42:00,24.0,10.0,-100.00,South,170,5.0,7.0,54,0.00,,,-99.99,,2013-03-21 16:42:00,
2013-03-21 11:52:00,26.0,10.0,-100.00,WSW,240,2.0,9.0,52,0.00,,,-99.99,,2013-03-21 16:52:00,
2013-03-21 12:02:00,26.0,10.0,-100.00,WSW,240,2.0,9.0,52,0.00,,,-99.99,,2013-03-21 17:02:00,
2013-03-21 12:12:00,25.0,12.0,-100.00,SE,140,6.0,9.0,56,0.00,,,-99.99,,2013-03-21 17:12:00,
2013-03-21 12:23:00,26.0,12.0,-100.00,South,175,4.0,8.0,56,0.00,,,-99.99,,2013-03-21 17:23:00,
2013-03-21 12:32:00,27.0,11.0,-100.00,SW,235,4.0,7.0,50,0.00,,,-99.99,,2013-03-21 17:32:00,
2013-03-21 12:42:00,27.0,11.0,-100.00,SW,235,4.0,7.0,50,0.00,,,-99.99,,2013-03-21 17:42:00,
2013-03-21 12:52:00,28.0,11.0,-100.00,South,190,1.0,7.0,47,0.00,,,-99.99,,2013-03-21 17:52:00,
2013-03-21 13:02:00,28.0,11.0,-100.00,South,190,1.0,7.0,47,0.00,,,-99.99,,2013-03-21 18:02:00,
2013-03-21 13:12:00,27.0,11.0,-100.00,East,85,3.0,9.0,49,0.00,,,-99.99,,2013-03-21 18:12:00,
2013-03-21 13:22:00,27.0,11.0,-100.00,ESE,110,6.0,9.0,51,0.00,,,-99.99,,2013-03-21 18:22:00,
2013-03-21 13:32:00,27.0,11.0,-100.00,ENE,70,5.0,10.0,50,0.00,,,-99.99,,2013-03-21 18:32:00,
2013-03-21 13:42:00,27.0,11.0,-100.00,ENE,70,5.0,10.0,50,0.00,,,-99.99,,2013-03-21 18:42:00,
2013-03-21 13:52:00,28.0,12.0,-100.00,ESE,110,6.0,12.0,49,0.00,,,-99.99,,2013-03-21 18:52:00,
2013-03-21 14:02:00,28.0,12.0,-100.00,ESE,110,6.0,12.0,49,0.00,,,-99.99,,2013-03-21 19:02:00,
2013-03-21 14:12:00,29.0,13.0,-100.00,NE,55,6.0,11.0,49,0.00,,,-99.99,,2013-03-21 19:12:00,
2013-03-21 14:22:00,29.0,13.0,-100.00,SSE,155,4.0,10.0,50,0.00,,,-99.99,,2013-03-21 19:22:00,
2013-03-21 14:32:00,30.0,13.0,-100.00,ESE,105,4.0,9.0,49,0.00,,,-99.99,,2013-03-21 19:32:00,
2013-03-21 14:42:00,30.0,13.0,-100.00,ESE,105,4.0,9.0,49,0.00,,,-99.99,,2013-03-21 19:42:00,
2013-03-21 14:52:00,31.0,12.0,-100.00,East,100,4.0,9.0,44,0.00,,,-99.99,,2013-03-21 19:52:00,
2013-03-21 15:02:00,31.0,12.0,-100.00,East,100,4.0,9.0,44,0.00,,,-99.99,,2013-03-21 20:02:00,
2013-03-21 15:12:00,32.0,13.0,-100.00,East,100,4.0,11.0,46,0.00,,,-99.99,,2013-03-21 20:12:00,
2013-03-21 15:22:00,31.0,12.0,-100.00,SE,135,2.0,9.0,45,0.00,,,-99.99,,2013-03-21 20:22:00,
2013-03-21 15:33:00,31.0,13.0,-100.00,SE,130,3.0,7.0,47,0.00,,,-99.99,,2013-03-21 20:33:00,
2013-03-21 15:42:00,31.0,13.0,-100.00,SE,130,3.0,7.0,47,0.00,,,-99.99,,2013-03-21 20:42:00,
2013-03-21 15:52:00,34.0,16.0,-100.00,ESE,120,1.0,6.0,46,0.00,,,-99.99,,2013-03-21 20:52:00,
2013-03-21 16:02:00,34.0,16.0,-100.00,ESE,120,1.0,6.0,46,0.00,,,-99.99,,2013-03-21 21:02:00,
2013-03-21 16:12:00,33.0,16.0,-100.00,SE,125,4.0,6.0,48,0.00,,,-99.99,,2013-03-21 21:12:00,
2013-03-21 16:22:00,33.0,15.0,-100.00,ESE,120,4.0,6.0,47,0.00,,,-99.99,,2013-03-21 21:22:00,
2013-03-21 16:33:00,34.0,14.0,-100.00,North,0,4.0,6.0,42,0.00,,,-99.99,,2013-03-21 21:33:00,
2013-03-21 16:43:00,34.0,15.0,-100.00,NE,40,3.0,6.0,44,0.00,,,-99.99,,2013-03-21 21:43:00,
2013-03-21 16:52:00,35.0,15.0,-100.00,ENE,70,4.0,9.0,45,0.00,,,-99.99,,2013-03-21 21:52:00,
2013-03-21 17:02:00,35.0,15.0,-100.00,ENE,70,4.0,9.0,45,0.00,,,-99.99,,2013-03-21 22:02:00,
2013-03-21 17:13:00,34.0,15.0,-100.00,ENE,60,6.0,11.0,45,0.00,,,-99.99,,2013-03-21 22:13:00,
2013-03-21 17:23:00,33.0,14.0,-100.00,East,90,4.0,16.0,45,0.00,,,-99.99,,2013-03-21 22:23:00,
2013-03-21 17:33:00,34.0,17.0,-100.00,ESE,110,6.0,11.0,48,0.00,,,-99.99,,2013-03-21 22:33:00,
2013-03-21 17:42:00,34.0,17.0,-100.00,ESE,110,6.0,11.0,48,0.00,,,-99.99,,2013-03-21 22:42:00,
2013-03-21 17:52:00,33.0,16.0,-100.00,ENE,60,6.0,11.0,47,0.00,,,-99.99,,2013-03-21 22:52:00,
2013-03-21 18:02:00,33.0,16.0,-100.00,ENE,60,6.0,11.0,47,0.00,,,-99.99,,2013-03-21 23:02:00,
2013-03-21 18:12:00,34.0,17.0,-100.00,ENE,60,6.0,11.0,48,0.00,,,-99.99,,2013-03-21 23:12:00,
2013-03-21 18:22:00,33.0,16.0,-100.00,East,90,7.0,14.0,48,0.00,,,-99.99,,2013-03-21 23:22:00,
2013-03-21 18:32:00,33.0,17.0,-100.00,East,85,8.0,12.0,51,0.00,,,-99.99,,2013-03-21 23:32:00,
2013-03-21 18:42:00,33.0,17.0,-100.00,East,85,8.0,12.0,51,0.00,,,-99.99,,2013-03-21 23:42:00,
2013-03-21 18:52:00,32.0,18.0,-100.00,ENE,70,7.0,11.0,55,0.00,,,-99.99,,2013-03-21 23:52:00,
2013-03-21 19:02:00,32.0,18.0,-100.00,ENE,70,7.0,11.0,55,0.00,,,-99.99,,2013-03-22 00:02:00,
2013-03-21 19:12:00,32.0,18.0,-100.00,ENE,70,10.0,12.0,56,0.00,,,-99.99,,2013-03-22 00:12:00,
2013-03-21 19:22:00,31.0,18.0,-100.00,East,80,9.0,13.0,59,0.00,,,-99.99,,2013-03-22 00:22:00,
2013-03-21 19:32:00,30.0,19.0,-100.00,East,80,9.0,12.0,63,0.00,,,-99.99,,2013-03-22 00:32:00,
2013-03-21 19:42:00,30.0,19.0,-100.00,East,80,9.0,12.0,63,0.00,,,-99.99,,2013-03-22 00:42:00,
2013-03-21 19:52:00,29.0,19.0,-100.00,ENE,75,7.0,12.0,64,0.00,,,-99.99,,2013-03-22 00:52:00,
2013-03-21 20:02:00,29.0,19.0,-100.00,ENE,75,7.0,12.0,64,0.00,,,-99.99,,2013-03-22 01:02:00,
2013-03-21 20:12:00,29.0,20.0,-100.00,ENE,70,7.0,9.0,67,0.00,,,-99.99,,2013-03-22 01:12:00,
2013-03-21 20:22:00,28.0,20.0,-100.00,ENE,70,9.0,16.0,71,0.00,,,-99.99,,2013-03-22 01:22:00,
2013-03-21 20:32:00,27.0,19.0,-100.00,ENE,75,10.0,14.0,71,0.00,,,-99.99,,2013-03-22 01:32:00,
2013-03-21 20:42:00,27.0,19.0,-100.00,ENE,75,10.0,14.0,71,0.00,,,-99.99,,2013-03-22 01:42:00,
2013-03-21 20:52:00,26.0,19.0,-100.00,ENE,70,9.0,13.0,74,0.00,,,-99.99,,2013-03-22 01:52:00,
2013-03-21 21:02:00,26.0,19.0,-100.00,ENE,70,9.0,13.0,74,0.00,,,-99.99,,2013-03-22 02:02:00,
2013-03-21 21:12:00,26.0,19.0,-100.00,ENE,65,10.0,12.0,73,0.00,,,-99.99,,2013-03-22 02:12:00,
2013-03-21 21:22:00,26.0,19.0,-100.00,ENE,75,7.0,11.0,74,0.00,,,-99.99,,2013-03-22 02:22:00,
2013-03-21 21:32:00,25.0,19.0,-100.00,East,80,6.0,9.0,75,0.00,,,-99.99,,2013-03-22 02:32:00,
2013-03-21 21:42:00,25.0,19.0,-100.00,East,80,6.0,9.0,75,0.00,,,-99.99,,2013-03-22 02:42:00,
2013-03-21 21:52:00,25.0,19.0,-100.00,ENE,65,6.0,8.0,76,0.00,,,-99.99,,2013-03-22 02:52:00,
2013-03-21 22:02:00,25.0,19.0,-100.00,ENE,65,6.0,8.0,76,0.00,,,-99.99,,2013-03-22 03:02:00,
2013-03-21 22:12:00,25.0,19.0,-100.00,ENE,70,6.0,7.0,77,0.00,,,-99.99,,2013-03-22 03:12:00,
2013-03-21 22:22:00,25.0,19.0,-100.00,ENE,65,6.0,7.0,78,0.00,,,-99.99,,2013-03-22 03:22:00,
2013-03-21 22:33:00,25.0,20.0,-100.00,ENE,70,4.0,7.0,80,0.00,,,-99.99,,2013-03-22 03:33:00,
2013-03-21 22:42:00,25.0,20.0,-100.00,ENE,70,4.0,7.0,80,0.00,,,-99.99,,2013-03-22 03:42:00,
2013-03-21 22:52:00,24.0,20.0,-100.00,ENE,70,3.0,6.0,82,0.00,,,-99.99,,2013-03-22 03:52:00,
2013-03-21 23:03:00,24.0,20.0,-100.00,ENE,70,3.0,6.0,82,0.00,,,-99.99,,2013-03-22 04:03:00,
2013-03-21 23:12:00,24.0,20.0,-100.00,ENE,65,2.0,5.0,82,0.00,,,-99.99,,2013-03-22 04:12:00,
2013-03-21 23:23:00,24.0,19.0,-100.00,NE,50,3.0,5.0,83,0.00,,,-99.99,,2013-03-22 04:23:00,
2013-03-21 23:32:00,23.0,19.0,-100.00,NE,35,4.0,6.0,85,0.00,,,-99.99,,2013-03-22 04:32:00,
2013-03-21 23:42:00,23.0,19.0,-100.00,NE,35,4.0,6.0,85,0.00,,,-99.99,,2013-03-22 04:42:00,
2013-03-21 23:52:00,23.0,20.0,-100.00,NE,55,4.0,6.0,87,0.00,,,-99.99,,2013-03-22 04:52:00,